Location: Township of Marena
(38.1747°N, 99.6798°W)
Time: 02:31:38
(UTC+00:00)

BREEZE-M DEB (TANK) - Pass Details

Date: 26 October 2020
Orbit: 312 x 13937 km, 49.6° (Epoch: 24 November)

Event Time Altitude Azimuth Distance (km) Brightness Sun altitude
Exits shadow 10:41:35 45° 337° (NNW) 1,290 4.4 -27.6°
Maximum altitude 10:43:14 63° 36° (NE) 1,308 4.7 -27.3°
Drops below altitude 10° 10:59:17 10° 117° (ESE) 7,210 9.2 -24.1°
Sets 11:10:00 0° 121° (ESE) 10,634 10.3 -22.0°
